Погода в Климковке

Россия / Кировская область     58°53′37″N   51°13′47″E
темп.,
°C
ветер,
м/с
пор.,
м/с
влажн.,
%
обл.,
%
осадки,
мм/ч
давл.,
гПа
погр.,
м
28 июля, ср
ср2800:00+12зсз31065100 0.0 1015634
03:00+7з2891100 0.0 1015171
06:00+11сз48715 0.0 1015651
09:00+15сз474946 0.0 10141612
12:00+15ссз4748100 0.0 10141706
15:00+18ссз374117 0.0 10131856
18:00+17сз255342 0.0 1012543
21:00+11ююз2269100 0.0 101226
29 июля, чт
чт2900:00+10ююз387649 0.0 1010143
03:00+10юз3127468 0.0 1009258
06:00+13з3106586 0.0 1008317
09:00+18зюз375456 0.0 1006503
12:00+24з473898 0.0 10052025
15:00+23зюз254983 0.0 1003505
18:00+18ссв238896 0.8 100360
21:00+15с1196100 2.4 100329
30 июля, пт
пт3000:00+14вюв2399100 3.1 100278
03:00+14ююз1699100 3.1 1001213
06:00+15юз389999 0.6 1000393
09:00+17зюз4892100 0.9 1000829
12:00+18з488598 0.3 1000999
15:00+21з467747 1.4 10011189
18:00+19сз24905 0.9 1002300
21:00+15всв00970 1.1 100311
31 июля, сб
сб3100:00+14ююв11985 0.0 100311
03:00+13ююв119717 0.0 100314
06:00+17ююв249599 0.0 1003147
09:00+21ююз368092 0.2 1002483
12:00+20юз489299 3.7 1001464
15:00+15сз2596100 8.6 1002230
18:00+18юз27928 0.1 1001512
21:00+15зюз399729 1.8 1002198
1 августа, вс
вс100:00+13зюз310986 0.3 1003311
03:00+12зюз3109862 0.3 1005251
06:00+14зюз27954 0.0 1006238
09:00+19з4765100 0.0 10061055
12:00+22з5852100 0.0 10071789
15:00+24зюз584398 0.0 10072298
18:00+21юз276592 0.0 1007256
21:00+18ююз2272100 0.0 100749